Погода в Хайзыонге

Вьетнам     20°56′33″N   106°19′35″E
темп.,
°C
ветер,
м/с
пор.,
м/с
влажн.,
%
обл.,
%
осадки,
мм/ч
давл.,
гПа
погр.,
м
13 мая, чт
чт1301:00+27юв499429 0.0 1004538
04:00+27юв4109417 0.1 1004519
07:00+28ююв698537 0.2 1006781
10:00+31ю687075 0.5 10051071
13:00+35ююв775632 0.7 10031655
16:00+33юв89640 0.1 999925
19:00+28юв4782100 0.7 1003297
22:00+26юв4790100 4.4 1004236
14 мая, пт
пт1401:00+27ююв4119397 4.6 1003584
04:00+26юв389635 0.0 1004383
07:00+28ююв6108656 0.1 1005832
10:00+31ю686993 0.1 10051277
13:00+33ююв786155 0.2 10021392
16:00+33ююв77645 0.1 10011025
19:00+28ююв598678 0.1 1003503
22:00+27ююв6128989 0.0 1005604
15 мая, сб
сб1501:00+28ююв5109073 0.1 1004703
04:00+27ююв5119066 0.1 1003683
07:00+29ююв6108555 0.2 1005815
10:00+31ю697499 0.4 10051041
13:00+34ююв775830 0.5 10021526
16:00+33ююв78630 0.0 1001999
19:00+28юв59855 0.0 1003518
22:00+28ююв5128927 0.0 1004660
16 мая, вс
вс1601:00+27юв5119075 0.0 1003729
04:00+27юв5109092 0.1 1003594
07:00+29ююв598698 0.3 1005854
10:00+31ююв677384 0.3 10051057
13:00+35ююв665753 0.4 10031567
16:00+33юв77630 0.0 10011020
19:00+28сз1387100 2.1 100569
22:00+27юв5993100 5.2 1005284
17 мая, пн
пн1701:00+27юв41094100 5.2 1005553
04:00+27вюв359712 0.3 1005164
07:00+29юв468551 0.8 1007512
10:00+31юв3470100 3.7 1008898
13:00+31всв2371100 15.3 1007847
16:00+30вюв2377100 1.6 1005638
19:00+27всв1286100 3.9 100654
22:00+27всв1290100 0.6 100870